This is the latest recevied weather packets stored in our database for station/object PA0HHN. If no packets are shown the sender has not sent any weather packets the latest 10 day(s).
| Time | Temp. | Humidity | Pressure | Rain* | Wind** | Luminosity | Snow |
|---|---|---|---|---|---|---|---|
| 1777755601 | 17.22° C | 81% | 1008.6 hPa | - | - | - | - |
| 1777754701 | 17.78° C | 80% | 1008.5 hPa | - | - | - | - |
| 1777749300 | 20° C | 72% | 1008.3 hPa | - | - | - | - |
| 1777748401 | 20° C | 69% | 1008.4 hPa | - | - | - | - |
| 1777747501 | 21.11° C | 67% | 1008.2 hPa | - | - | - | - |
| 1777746602 | 21.11° C | 64% | 1008.1 hPa | - | - | - | - |
| 1777745702 | 22.22° C | 63% | 1008 hPa | - | - | - | - |
| 1777744801 | 22.22° C | 62% | 1008.5 hPa | - | - | - | - |
| 1777743902 | 22.78° C | 59% | 1008.5 hPa | - | - | - | - |
| 1777743001 | 22.78° C | 59% | 1008.4 hPa | - | - | - | - |
| 1777742102 | 23.89° C | 56% | 1008.5 hPa | - | - | - | - |
| 1777741201 | 23.89° C | 57% | 1008.6 hPa | - | - | - | - |
| 1777740302 | 23.89° C | 57% | 1008.8 hPa | - | - | - | - |
| 1777739400 | 23.89° C | 56% | 1009.1 hPa | - | - | - | - |
| 1777738502 | 23.89° C | 56% | 1009.3 hPa | - | - | - | - |
| 1777737601 | 23.89° C | 56% | 1009.4 hPa | - | - | - | - |
| 1777736701 | 23.89° C | 56% | 1009.3 hPa | - | - | - | - |
| 1777735802 | 22.78° C | 57% | 1009.5 hPa | - | - | - | - |
| 1777734901 | 23.89° C | 56% | 1009.8 hPa | - | - | - | - |
| 1777734001 | 22.78° C | 56% | 1009.7 hPa | - | - | - | - |
| 1777733102 | 23.89° C | 55% | 1010 hPa | - | - | - | - |
| 1777727701 | 23.89° C | 48% | 1010.2 hPa | - | - | - | - |
| 1777726800 | 25° C | 47% | 1010.4 hPa | - | - | - | - |
| 1777725902 | 25° C | 47% | 1010.6 hPa | - | - | - | - |
| 1777725001 | 25° C | 47% | 1010.8 hPa | - | - | - | - |
* Rain since midnight (hover to see other rain measurements)
** Current wind speed in m/s (hover to see current wind gust speed)